GFSWCAN_850_dewp_003.txt.gz
Dewpoint
5 6 5 6 5 5 5 5 5 4 4 4 4 4 3 3 3 2 3 3 2 2 2 3 3 3 3 3 1 3 2 3 2 2 1 2 -2 1 3 1 1 1 2 1 2 3 4 -0 2 3 2 1 1 2
4 6 5 6 5 5 5 6 5 5 5 5 5 5 5 4 4 4 4 3 3 1 2 3 4 3 3 3 3 3 3 2 3 3 2 -0 2 2 0 4 0 3 1 1 2 2 -1 0 0 -0 1 2 2 3
4 5 6 5 5 5 5 5 5 5 5 5 5 5 5 5 6 6 5 4 4 4 4 3 3 3 4 3 4 5 4 4 3 3 2 2 4 2 5 4 4 3 2 2 2 1 0 1 2 2 2 2 3 2
3 3 4 5 4 5 5 5 5 5 5 5 5 5 5 6 6 6 6 5 4 4 4 3 3 3 2 2 2 2 3 4 4 4 4 2 3 4 4 4 4 3 4 3 3 3 3 2 2 3 3 4 2 2
2 3 3 5 6 6 5 5 5 5 5 5 5 5 5 5 6 6 6 6 5 4 4 3 3 2 2 3 3 3 3 4 5 6 4 3 4 3 3 2 3 4 3 4 5 3 2 2 4 3 1 0 0 -2
0 3 2 4 5 6 6 5 5 5 5 6 5 6 6 6 6 6 6 4 5 4 4 3 3 2 2 3 4 4 4 4 4 5 5 4 4 3 3 4 2 2 2 3 3 2 3 4 2 -0 -0 -2 -5 -6
-2 -0 2 2 2 3 4 5 5 5 5 6 6 6 6 6 6 6 4 3 2 3 4 4 4 3 3 3 3 3 3 4 5 5 5 4 4 4 2 4 3 3 2 2 2 2 2 3 2 -2 -7 -9 -10 -10
-4 -4 -4 -3 0 2 1 3 4 5 5 5 5 5 5 5 5 5 5 3 2 5 5 3 2 3 2 3 3 3 4 4 5 5 4 4 4 4 4 3 2 1 1 0 1 1 2 1 -3 -6 -9 -11 -9 -5
-3 -4 -3 -2 -2 -3 -3 -1 1 2 3 4 4 5 5 5 4 4 5 5 4 4 4 2 2 3 3 3 3 3 2 2 2 2 2 3 2 4 3 2 1 -1 0 1 0 -1 -2 -3 -4 -11 -13 -14 -13 -11
-4 -3 -2 -2 -2 -2 -2 -3 -4 -3 -0 3 4 4 3 3 3 4 3 4 4 3 3 2 2 2 3 3 2 2 1 1 2 1 1 1 2 0 -0 -2 -2 -2 -1 -0 -0 -2 -5 -9 -4 -5 -7 -11 -12 -9
-4 -3 -2 -3 -3 -2 -0 -1 -0 1 3 3 3 2 2 2 3 3 2 2 2 1 1 0 1 2 2 1 1 1 0 -0 1 -3 0 -1 -1 -2 -1 0 -0 -1 -1 -6 -6 -5 -4 -5 -6 -8 -10 -14 -11 -7
-4 -3 -2 -3 -2 -1 -0 2 2 2 1 1 0 1 2 2 2 1 1 -0 -0 1 -0 -0 0 1 1 1 1 -1 -1 -1 -1 -3 -0 -1 -4 -3 -4 -4 -5 -5 -6 -6 -6 -6 -6 -7 -6 -7 -10 -11 -8 -7
-4 -3 -2 -3 -2 -1 -1 1 1 1 1 1 1 1 1 0 1 1 0 0 -1 -0 -0 -0 0 0 0 0 -1 -2 -1 -2 -2 -2 -2 -4 -5 -8 -11 -12 -13 -9 -6 -6 -9 -11 -9 -7 -6 -7 -8 -8 -7 -6
-3 -3 -2 -2 -3 -1 -0 -0 1 1 -1 -2 -2 0 -1 -1 -0 -2 -5 -5 -2 0 1 0 -1 -1 -1 -3 -3 -3 -5 -6 -3 -1 -4 -6 -8 -12 -12 -11 -10 -10 -11 -13 -12 -10 -8 -7 -7 -7 -6 -7 -7 -6
-3 -3 -1 -2 -3 -2 -1 -1 -0 -1 -3 -4 -5 -5 -3 -3 -2 -1 -1 -0 0 1 0 -1 -2 -3 -3 -6 -5 -7 -5 -4 -4 -5 -7 -7 -8 -8 -7 -7 -9 -11 -11 -10 -9 -9 -9 -9 -9 -8 -8 -6 -6 -6
-3 -1 -2 -1 -2 -3 -2 -1 -0 -1 -3 -3 -3 -5 -3 -3 -2 -2 -1 -1 -0 -0 -2 -3 -6 -8 -7 -9 -7 -5 -6 -6 -7 -8 -8 -8 -6 -6 -9 -10 -10 -10 -8 -9 -10 -8 -7 -7 -6 -5 -6 -5 -6 -5
-2 -1 -1 -1 -1 -1 -1 -1 -1 -1 -3 -7 -4 -4 -3 -3 -3 -3 -2 -2 -2 -3 -4 -5 -7 -7 -7 -9 -7 -7 -7 -9 -6 -10 -7 -5 -6 -10 -10 -9 -8 -7 -9 -9 -8 -7 -7 -6 -5 -4 -4 -5 -6 -5
-1 -2 -2 -2 -2 -2 -2 -2 -3 -4 -6 -7 -4 -4 -3 -3 -3 -3 -2 -3 -2 -3 -4 -7 -7 -8 -9 -8 -9 -9 -7 -9 -12 -9 -8 -9 -11 -10 -7 -7 -8 -8 -9 -8 -7 -7 -6 -5 -4 -5 -5 -5 -5 -5
-2 -2 -2 -2 -2 -3 -4 -4 -4 -7 -8 -5 -5 -5 -4 -4 -4 -4 -4 -4 -4 -2 -3 -5 -10 -10 -9 -9 -11 -12 -12 -11 -9 -9 -11 -11 -8 -7 -7 -8 -8 -7 -7 -7 -6 -6 -6 -5 -5 -5 -5 -5 -5 -5
-2 -2 -3 -2 -4 -5 -6 -5 -5 -6 -5 -5 -5 -4 -4 -4 -5 -5 -4 -4 -4 -3 -2 -3 -7 -7 -8 -9 -9 -9 -9 -8 -9 -10 -9 -8 -7 -7 -7 -7 -7 -6 -7 -7 -7 -6 -6 -5 -6 -6 -5 -5 -5 -5
-3 -3 -3 -3 -4 -6 -6 -6 -6 -6 -6 -6 -6 -5 -6 -5 -5 -6 -5 -5 -4 -4 -4 -6 -7 -7 -8 -9 -9 -9 -11 -11 -9 -7 -7 -7 -6 -6 -6 -7 -7 -8 -9 -8 -8 -6 -6 -5 -6 -6 -6 -5 -5 -5
-3 -3 -3 -4 -4 -6 -6 -8 -8 -7 -8 -6 -7 -6 -6 -5 -5 -5 -4 -4 -4 -7 -7 -9 -13 -14 -13 -12 -12 -11 -9 -9 -8 -8 -8 -7 -6 -7 -7 -7 -7 -8 -9 -9 -7 -5 -6 -6 -6 -6 -6 -5 -6 -5
-4 -4 -5 -5 -7 -7 -6 -6 -6 -5 -6 -6 -6 -7 -6 -6 -7 -6 -4 -4 -6 -11 -13 -11 -11 -11 -10 -10 -9 -9 -9 -9 -8 -8 -7 -7 -9 -9 -9 -8 -6 -6 -9 -10 -6 -6 -6 -6 -6 -5 -6 -5 -5 -5
-4 -5 -5 -6 -7 -7 -5 -6 -6 -5 -5 -6 -10 -11 -10 -7 -6 -5 -9 -6 -12 -12 -11 -11 -10 -10 -10 -10 -11 -11 -10 -9 -8 -7 -9 -10 -10 -10 -8 -8 -6 -6 -7 -8 -6 -6 -6 -6 -6 -5 -5 -5 -6 -6
-5 -5 -7 -7 -6 -7 -9 -9 -7 -7 -8 -13 -12 -12 -10 -8 -11 -13 -11 -10 -12 -13 -13 -14 -13 -12 -11 -10 -10 -11 -11 -10 -10 -9 -10 -9 -8 -9 -8 -8 -9 -9 -8 -6 -6 -7 -6 -6 -7 -5 -6 -6 -6 -6
-9 -6 -6 -7 -7 -9 -9 -10 -8 -10 -15 -13 -12 -8 -8 -12 -12 -11 -10 -13 -14 -14 -13 -13 -11 -9 -10 -10 -10 -10 -10 -10 -10 -9 -9 -7 -7 -7 -7 -7 -9 -8 -7 -7 -7 -6 -6 -6 -7 -6 -5 -7 -7 -6
-9 -7 -6 -6 -7 -6 -7 -8 -8 -10 -14 -12 -13 -12 -14 -11 -11 -10 -13 -14 -13 -13 -11 -9 -9 -9 -9 -9 -9 -9 -9 -9 -9 -9 -8 -7 -5 -5 -6 -6 -6 -7 -7 -7 -7 -7 -7 -6 -6 -6 -6 -6 -6 -6
-5 -7 -7 -6 -5 -6 -10 -11 -15 -12 -12 -9 -10 -11 -10 -11 -10 -13 -13 -13 -12 -12 -12 -11 -11 -10 -10 -9 -8 -7 -7 -6 -6 -5 -5 -4 -5 -6 -7 -6 -7 -7 -7 -7 -7 -7 -7 -7 -7 -7 -6 -6 -7 -6
-5 -5 -6 -6 -7 -6 -6 -8 -9 -9 -10 -10 -11 -13 -11 -11 -12 -11 -11 -11 -10 -10 -10 -10 -9 -8 -7 -6 -5 -5 -5 -5 -6 -6 -7 -7 -7 -7 -7 -8 -8 -8 -8 -8 -8 -8 -7 -7 -7 -7 -7 -7 -7 -7
-6 -6 -5 -6 -6 -7 -7 -7 -8 -9 -9 -9 -9 -9 -9 -10 -10 -10 -9 -9 -8 -8 -8 -8 -7 -6 -5 -5 -6 -6 -5 -6 -7 -7 -7 -7 -8 -8 -8 -8 -8 -8 -8 -8 -8 -8 -9 -9 -9 -9 -9 -8 -7 -7
-7 -6 -6 -7 -9 -8 -9 -10 -10 -10 -9 -9 -9 -8 -8 -8 -8 -8 -8 -7 -7 -6 -6 -6 -6 -6 -6 -6 -7 -7 -7 -7 -8 -8 -8 -9 -9 -9 -9 -9 -9 -9 -9 -9 -9 -9 -9 -9 -9 -9 -9 -9 -9 -8
-7 -7 -7 -11 -9 -9 -8 -8 -8 -8 -9 -9 -9 -10 -9 -7 -7 -7 -9 -9 -9 -9 -9 -9 -9 -9 -9 -9 -9 -9 -9 -9 -9 -9 -9 -9 -9 -9 -9 -10 -10 -10 -10 -10 -10 -9 -9 -9 -10 -10 -10 -10 -10 -10
-6 -7 -7 -7 -7 -8 -10 -11 -10 -10 -12 -11 -11 -10 -9 -8 -10 -13 -13 -13 -12 -12 -11 -11 -10 -10 -11 -11 -11 -11 -11 -11 -11 -10 -10 -10 -10 -10 -10 -11 -11 -11 -12 -12 -11 -11 -10 -11 -11 -11 -11 -11 -10 -10

GFSWCAN_850_dewp_009.txt.gz
Dewpoint
4 5 6 5 5 5 4 3 2 1 1 -0 -1 -1 -0 2 2 2 1 0 0 -1 2 2 1 0 1 1 3 3 3 3 3 3 4 4 3 2 3 1 1 1 3 3 3 4 4 -1 -0 3 3 3 2 3
2 4 4 4 5 5 5 4 3 2 3 2 1 1 2 2 2 2 3 2 1 1 2 3 3 2 2 1 1 3 1 2 3 2 1 1 3 0 2 5 -0 4 2 3 3 3 -1 -1 0 1 3 4 3 3
2 3 4 5 5 5 5 5 4 3 4 4 3 3 3 4 3 3 2 3 2 2 3 3 3 4 4 3 3 2 2 2 2 2 1 1 3 1 4 3 3 2 1 4 3 3 1 1 2 3 3 3 2 2
0 2 3 3 5 5 5 5 5 4 4 5 5 4 4 5 5 5 4 4 3 3 3 3 3 3 4 4 4 4 4 3 3 3 3 1 3 1 3 4 4 3 3 3 3 2 2 2 3 4 3 2 0 -6
0 1 3 2 4 5 5 5 5 5 5 5 5 5 5 5 5 5 5 5 5 4 3 3 3 3 2 2 2 3 3 4 4 5 3 3 3 3 3 2 3 3 4 4 4 2 3 4 2 3 2 -4 -6 -5
1 1 2 3 3 4 5 5 4 5 5 5 5 5 5 5 6 5 5 6 6 5 4 3 3 3 2 2 2 3 3 4 5 5 5 4 4 3 3 4 3 2 2 2 3 3 2 2 3 -3 -6 -5 -8 -10
-1 -0 1 2 3 3 4 5 5 5 5 5 5 5 5 6 6 5 4 3 4 5 4 3 2 3 3 3 3 4 4 5 5 5 5 4 3 3 2 4 2 2 1 2 0 1 3 2 -1 -3 -6 -8 -7 -7
-2 -3 -2 1 2 3 4 5 5 5 5 5 5 5 5 5 5 5 5 3 3 5 3 1 2 2 2 2 3 3 4 4 4 4 4 4 3 3 4 2 1 -1 -1 -0 0 1 1 -2 -5 -6 -6 -7 -9 -10
-2 -3 -3 -3 1 1 2 4 5 5 5 5 5 5 5 5 5 5 5 4 3 3 3 3 3 4 2 2 2 2 3 2 2 2 2 3 2 3 0 -1 0 -0 -0 1 -2 -2 -4 -6 -6 -8 -10 -9 -9 -8
-2 -3 -3 -2 -2 -1 1 2 3 5 5 5 5 5 4 4 5 5 5 5 5 4 3 2 2 2 3 2 2 2 2 1 2 1 1 1 2 -2 -2 0 -0 -1 -1 -2 -5 -7 -8 -10 -11 -11 -11 -8 -5 -5
-2 -3 -2 -3 -3 -1 -1 1 2 3 3 3 3 2 2 3 3 3 2 2 1 1 1 2 2 2 2 2 2 2 1 0 1 -1 1 1 0 -3 -5 -5 -5 -7 -8 -9 -12 -14 -14 -14 -13 -12 -13 -11 -9 -10
-1 -2 -2 -2 -3 -1 -0 -1 0 2 2 1 1 0 1 1 0 0 1 -0 1 1 0 0 1 1 1 2 1 -1 0 -1 -1 -2 -0 0 -3 -3 -5 -8 -8 -8 -13 -14 -16 -16 -15 -13 -12 -11 -11 -10 -9 -8
-1 -2 -3 -2 0 1 1 0 -0 1 2 1 1 0 0 0 1 2 2 1 1 -1 -0 0 -0 1 0 1 -0 -1 -1 -1 -3 -2 -1 -3 -6 -11 -11 -10 -10 -10 -12 -15 -15 -14 -10 -10 -11 -10 -9 -9 -8 -8
-1 -1 -3 -2 -0 1 1 2 1 1 1 0 0 1 -0 0 -0 -2 -3 -3 -2 -0 -0 0 -1 -1 -1 -2 -3 -2 -4 -4 -1 -2 -3 -5 -10 -9 -9 -8 -9 -12 -15 -14 -11 -9 -8 -9 -9 -9 -9 -8 -8 -7
-1 -1 -2 -2 -0 0 1 1 1 1 -3 -4 -4 -1 -1 -3 -2 -1 -1 -1 -0 -0 -0 -1 -2 -2 -4 -4 -4 -4 -3 -2 -3 -4 -5 -9 -9 -8 -7 -8 -12 -14 -13 -11 -9 -9 -8 -8 -8 -9 -9 -8 -7 -7
-1 -1 -2 -2 -1 0 1 1 1 0 -4 -5 -5 -4 -3 -3 -2 -1 -1 -0 -0 -0 -0 -1 -4 -3 -3 -5 -4 -4 -4 -4 -5 -7 -8 -9 -8 -8 -10 -14 -14 -13 -11 -8 -8 -8 -7 -7 -8 -8 -9 -8 -7 -7
-2 -1 -1 -2 -0 -0 0 -0 -2 -2 -3 -7 -5 -4 -3 -4 -3 -3 -2 -1 -1 -1 -3 -6 -5 -4 -7 -5 -4 -6 -6 -7 -8 -12 -13 -10 -10 -11 -15 -15 -14 -10 -8 -8 -8 -7 -7 -9 -10 -9 -9 -9 -8 -7
-1 -1 -1 -2 -1 -1 -2 -2 -2 -3 -5 -6 -5 -5 -3 -3 -3 -3 -3 -2 -1 -2 -5 -5 -8 -7 -7 -6 -6 -8 -8 -7 -9 -12 -10 -9 -9 -13 -12 -12 -10 -8 -8 -7 -7 -7 -8 -9 -10 -11 -8 -7 -8 -7
-1 -1 -1 -2 -1 -2 -4 -3 -4 -6 -7 -7 -5 -4 -3 -3 -4 -4 -3 -2 -2 -3 -5 -5 -8 -6 -6 -9 -9 -9 -10 -11 -10 -7 -7 -9 -11 -11 -10 -9 -8 -8 -7 -7 -8 -9 -9 -8 -9 -11 -7 -6 -7 -6
-1 -1 -1 -1 -2 -4 -5 -5 -6 -8 -8 -6 -5 -4 -4 -5 -4 -4 -3 -2 -2 -3 -3 -3 -5 -6 -8 -9 -9 -8 -7 -7 -8 -10 -12 -12 -10 -9 -9 -8 -9 -8 -7 -9 -10 -9 -8 -8 -8 -9 -7 -6 -6 -5
-2 -3 -2 -2 -3 -7 -7 -6 -6 -6 -5 -5 -4 -4 -4 -4 -4 -4 -4 -4 -3 -3 -4 -5 -5 -7 -7 -7 -7 -8 -9 -11 -11 -10 -9 -9 -9 -8 -9 -9 -9 -7 -9 -10 -10 -9 -7 -7 -8 -8 -7 -6 -6 -6
-3 -2 -3 -4 -6 -7 -8 -7 -6 -7 -7 -6 -5 -5 -5 -5 -6 -6 -5 -5 -5 -5 -6 -8 -11 -13 -13 -12 -12 -11 -11 -10 -10 -10 -10 -10 -10 -10 -10 -9 -7 -9 -10 -9 -9 -7 -8 -8 -8 -7 -7 -7 -7 -6
-3 -3 -5 -5 -7 -7 -6 -7 -7 -8 -8 -7 -7 -8 -7 -7 -6 -6 -6 -6 -6 -11 -13 -13 -13 -12 -11 -11 -11 -12 -12 -11 -11 -10 -10 -10 -10 -10 -9 -8 -8 -10 -9 -8 -7 -7 -7 -7 -7 -7 -7 -7 -7 -7
-4 -4 -5 -6 -8 -7 -6 -6 -5 -5 -6 -8 -11 -9 -11 -8 -7 -8 -7 -7 -11 -14 -14 -13 -12 -13 -14 -14 -14 -12 -10 -10 -11 -11 -11 -11 -11 -12 -11 -12 -11 -10 -8 -7 -6 -6 -6 -7 -7 -7 -8 -7 -7 -7
-6 -6 -7 -7 -7 -8 -12 -9 -8 -7 -8 -9 -9 -10 -9 -8 -11 -10 -8 -8 -13 -14 -14 -14 -14 -14 -13 -13 -12 -10 -10 -10 -10 -11 -12 -11 -11 -10 -10 -9 -9 -8 -6 -5 -5 -6 -7 -7 -8 -8 -8 -8 -8 -8
-8 -7 -8 -8 -8 -11 -12 -8 -8 -8 -11 -11 -9 -9 -9 -12 -11 -9 -10 -12 -15 -14 -14 -13 -12 -11 -12 -11 -10 -10 -11 -10 -9 -9 -11 -9 -9 -7 -7 -7 -6 -6 -5 -6 -7 -8 -8 -8 -8 -8 -8 -8 -8 -8
-8 -7 -7 -8 -8 -8 -9 -10 -10 -11 -11 -10 -13 -13 -14 -10 -11 -10 -11 -13 -13 -12 -11 -10 -10 -11 -10 -10 -10 -10 -9 -9 -8 -8 -8 -7 -5 -5 -5 -5 -6 -6 -7 -7 -8 -8 -8 -9 -9 -9 -8 -8 -8 -8
-7 -6 -9 -7 -7 -7 -11 -12 -15 -12 -12 -9 -10 -11 -11 -11 -11 -12 -12 -12 -11 -10 -9 -9 -10 -10 -10 -10 -9 -9 -8 -8 -8 -6 -6 -6 -6 -6 -6 -7 -7 -7 -8 -8 -9 -9 -9 -9 -9 -9 -9 -9 -9 -9
-6 -6 -7 -8 -8 -7 -7 -9 -9 -9 -9 -10 -11 -13 -11 -11 -11 -10 -9 -9 -9 -9 -9 -9 -9 -8 -8 -8 -8 -8 -8 -7 -6 -6 -7 -7 -7 -7 -8 -8 -8 -8 -8 -9 -9 -9 -9 -9 -9 -9 -9 -9 -10 -10
-7 -6 -6 -8 -10 -10 -8 -8 -8 -9 -9 -9 -9 -9 -9 -9 -9 -9 -9 -9 -9 -9 -9 -9 -9 -9 -9 -9 -9 -8 -8 -8 -8 -8 -8 -8 -8 -9 -9 -9 -9 -9 -9 -9 -10 -10 -10 -10 -10 -10 -10 -11 -11 -11
-6 -7 -6 -7 -7 -7 -8 -7 -7 -7 -8 -8 -9 -10 -11 -10 -10 -9 -10 -11 -12 -12 -12 -12 -11 -11 -11 -11 -11 -10 -10 -10 -10 -10 -10 -10 -10 -10 -10 -10 -10 -10 -10 -11 -11 -12 -13 -13 -13 -13 -12 -12 -12 -12
-6 -7 -7 -11 -8 -9 -9 -9 -9 -9 -10 -12 -16 -13 -11 -9 -10 -12 -14 -14 -14 -14 -13 -13 -13 -13 -13 -13 -13 -13 -13 -12 -12 -12 -12 -12 -12 -11 -11 -11 -11 -12 -12 -13 -13 -14 -14 -14 -13 -13 -13 -13 -13 -13
-9 -9 -9 -8 -8 -8 -9 -11 -13 -12 -12 -13 -12 -10 -10 -12 -15 -16 -16 -15 -15 -15 -15 -15 -15 -15 -14 -14 -14 -14 -14 -14 -13 -13 -13 -13 -13 -12 -12 -12 -13 -13 -14 -14 -14 -14 -14 -14 -14 -14 -14 -14 -14 -14

GFSWCAN_850_dewp_012.txt.gz
Dewpoint
4 5 5 5 5 5 4 2 1 -0 -2 -3 -3 -3 -2 1 2 2 1 -0 -2 -1 2 1 1 1 2 3 6 5 5 5 6 6 6 6 7 5 3 1 3 4 6 6 5 5 6 -1 -0 5 2 3 4 3
3 4 5 5 5 5 5 3 2 2 0 -1 -1 -0 -0 1 2 2 2 1 -0 -1 2 2 1 0 0 1 2 4 4 4 5 6 5 4 5 4 7 5 1 3 2 2 3 4 -1 0 1 1 3 4 3 3
2 3 4 5 6 5 5 5 3 3 2 1 -0 1 2 2 2 2 2 2 1 1 4 4 4 2 2 1 1 4 2 3 3 4 5 5 5 4 6 5 6 1 1 3 3 1 0 2 1 3 4 3 2 1
0 1 3 4 3 5 5 5 5 4 3 3 2 3 3 3 3 3 3 2 2 2 3 4 4 4 4 3 3 2 2 2 2 2 3 4 5 3 5 4 4 2 2 2 3 2 2 1 4 4 3 2 1 -2
-0 0 2 2 4 4 4 5 5 5 4 4 4 4 4 5 5 5 4 4 3 2 5 4 3 3 4 4 4 4 4 4 3 4 3 4 5 4 4 4 5 2 1 4 6 3 3 3 3 2 3 -0 -2 -3
-1 -0 2 3 3 4 5 5 5 4 5 5 5 5 5 5 5 5 5 5 5 4 4 7 3 3 3 3 3 4 6 5 4 5 5 4 5 4 4 5 2 2 2 3 3 3 3 2 2 1 -2 -3 -6 -7
-2 -2 -1 2 3 3 3 5 5 4 5 5 5 5 5 5 5 5 5 3 5 5 4 5 5 3 3 3 4 4 4 5 5 5 5 4 5 4 4 4 2 3 2 1 2 2 2 1 0 -2 -5 -5 -6 -7
-2 -3 -3 -0 1 2 2 4 5 5 4 4 5 5 5 5 5 5 4 2 4 5 4 4 3 3 3 3 3 3 4 4 5 5 4 4 3 4 5 3 1 0 0 1 1 2 1 -2 -4 -5 -5 -7 -8 -11
-2 -3 -3 -1 -1 1 2 3 4 5 5 5 5 5 5 5 5 5 4 4 3 4 3 2 4 4 2 2 2 2 3 4 3 2 3 3 3 4 2 0 0 0 1 -0 -2 -3 -4 -6 -7 -8 -10 -11 -10 -9
-2 -3 -3 -3 -2 -2 1 3 3 5 6 5 5 5 5 4 5 5 5 4 5 4 4 3 3 4 3 2 2 2 2 3 4 2 1 1 3 -1 -2 0 0 1 -1 -2 -4 -6 -8 -10 -12 -11 -9 -8 -7 -8
-2 -3 -3 -3 -4 -1 -1 2 3 4 4 3 3 4 3 3 5 5 3 3 2 2 2 2 2 2 2 3 3 2 2 1 3 2 2 3 2 -1 -1 -3 -4 -5 -7 -9 -11 -11 -11 -10 -9 -8 -7 -8 -10 -10
-1 -2 -2 -3 -2 -0 -1 1 1 2 1 2 1 1 2 2 1 1 1 -0 0 3 0 1 1 2 2 2 2 -0 2 1 3 -1 1 1 -1 -3 -4 -4 -5 -8 -10 -11 -15 -12 -11 -9 -8 -10 -10 -10 -9 -9
-2 -2 -2 -2 -0 1 0 0 0 0 0 0 1 0 -0 -1 2 3 3 2 2 -0 0 0 0 1 1 1 -0 1 2 2 -2 -1 0 -1 -3 -3 -4 -6 -6 -9 -12 -15 -15 -12 -12 -9 -9 -10 -9 -9 -9 -9
-1 -2 -2 -2 -1 1 -0 -0 0 0 0 0 -0 1 1 1 1 1 1 2 -1 -0 -0 1 -1 0 -1 -1 -0 2 -1 -2 0 -0 0 -3 -6 -8 -8 -7 -8 -10 -14 -15 -14 -11 -10 -9 -9 -9 -8 -9 -9 -9
-1 -2 -1 -2 -1 0 1 1 0 0 -0 -0 -0 1 0 -2 -1 -1 -1 -1 -0 -0 0 -0 -1 -1 -1 -1 -2 -2 -1 -1 -1 -1 -3 -6 -8 -7 -7 -9 -9 -14 -15 -14 -12 -10 -9 -9 -8 -8 -10 -11 -10 -8
-2 -1 -1 -2 -1 -0 0 -0 0 0 -1 -4 -4 -2 -3 -1 -1 -1 -1 -1 -0 -0 -0 -1 -1 0 -0 -1 -1 -1 -1 -2 -3 -3 -4 -6 -9 -9 -10 -12 -15 -15 -14 -12 -10 -8 -8 -8 -7 -9 -10 -11 -12 -8
-3 -1 -1 -1 -1 0 0 0 0 -2 -3 -6 -3 -3 -3 -2 -1 -1 -1 -0 -0 -0 -0 -2 -0 -1 -4 -2 -2 -4 -3 -3 -4 -5 -9 -12 -12 -11 -11 -14 -15 -15 -13 -11 -10 -9 -7 -7 -9 -9 -10 -11 -11 -9
-2 -1 -1 -2 -1 -1 -1 -2 -2 -4 -4 -5 -4 -4 -4 -4 -3 -3 -2 -1 -1 -1 -4 -3 -6 -4 -3 -3 -3 -4 -5 -6 -8 -12 -12 -10 -9 -9 -12 -14 -14 -12 -10 -10 -9 -8 -7 -9 -10 -8 -9 -10 -11 -9
-2 -1 -1 -1 -1 -1 -2 -2 -4 -5 -5 -6 -5 -4 -3 -3 -3 -3 -3 -1 -1 -3 -6 -5 -3 -4 -5 -6 -4 -6 -7 -8 -6 -8 -9 -8 -10 -12 -12 -11 -11 -10 -10 -9 -8 -7 -8 -9 -9 -9 -8 -7 -8 -7
-2 -1 -1 -1 -1 -4 -5 -5 -7 -7 -5 -5 -4 -4 -4 -4 -4 -4 -3 -2 -2 -3 -2 -2 -3 -4 -5 -9 -10 -11 -10 -7 -7 -6 -7 -7 -10 -11 -10 -10 -10 -9 -9 -9 -8 -9 -10 -10 -8 -7 -6 -6 -6 -7
-2 -2 -1 -1 -2 -7 -7 -5 -6 -6 -5 -4 -4 -4 -5 -5 -4 -4 -3 -3 -2 -2 -3 -3 -6 -7 -8 -7 -7 -6 -7 -9 -9 -9 -8 -7 -7 -7 -11 -11 -10 -9 -9 -8 -8 -10 -10 -9 -8 -7 -7 -7 -7 -7
-3 -2 -2 -2 -4 -7 -8 -7 -5 -7 -5 -5 -5 -5 -4 -4 -5 -5 -5 -4 -4 -5 -5 -5 -7 -7 -8 -9 -12 -12 -12 -11 -10 -10 -10 -11 -10 -10 -9 -10 -10 -9 -8 -8 -10 -10 -9 -8 -7 -6 -7 -7 -7 -7
-2 -2 -4 -5 -7 -7 -6 -6 -6 -7 -6 -5 -6 -5 -5 -5 -6 -7 -5 -6 -6 -8 -10 -11 -12 -12 -12 -13 -13 -13 -13 -12 -12 -11 -10 -11 -11 -12 -12 -12 -12 -11 -11 -11 -10 -9 -7 -6 -6 -6 -7 -7 -7 -8
-5 -6 -6 -7 -7 -6 -6 -6 -6 -6 -6 -6 -6 -7 -7 -6 -7 -6 -6 -6 -10 -14 -13 -13 -12 -13 -14 -14 -14 -14 -13 -11 -10 -10 -11 -11 -11 -11 -11 -12 -11 -10 -9 -8 -8 -8 -6 -5 -6 -7 -7 -8 -8 -8
-7 -6 -7 -6 -7 -7 -6 -6 -6 -7 -6 -7 -6 -6 -7 -8 -6 -6 -6 -7 -11 -13 -12 -13 -14 -13 -12 -12 -12 -12 -11 -10 -10 -10 -10 -10 -10 -11 -11 -10 -9 -8 -7 -6 -6 -6 -6 -6 -7 -8 -8 -8 -8 -8
-6 -6 -7 -7 -7 -8 -7 -6 -7 -7 -7 -7 -7 -8 -9 -7 -6 -7 -8 -7 -12 -13 -13 -11 -11 -10 -9 -9 -10 -11 -10 -10 -9 -9 -10 -9 -9 -8 -7 -6 -6 -5 -6 -6 -6 -7 -7 -8 -8 -8 -9 -8 -8 -8
-7 -7 -6 -8 -8 -9 -8 -9 -9 -8 -7 -6 -6 -8 -7 -6 -7 -8 -10 -10 -10 -11 -10 -10 -9 -9 -9 -9 -10 -10 -10 -9 -9 -8 -8 -8 -8 -6 -6 -6 -6 -6 -7 -7 -7 -8 -8 -9 -9 -9 -9 -9 -9 -9
-7 -6 -7 -7 -7 -8 -8 -8 -7 -7 -7 -8 -8 -7 -6 -7 -8 -9 -10 -11 -11 -10 -9 -9 -9 -9 -9 -9 -8 -8 -8 -8 -8 -8 -8 -8 -6 -6 -6 -6 -7 -7 -8 -8 -8 -8 -9 -9 -9 -9 -9 -9 -9 -10
-6 -7 -7 -7 -8 -8 -7 -7 -7 -8 -9 -8 -7 -7 -8 -10 -10 -10 -9 -9 -9 -9 -9 -9 -10 -11 -11 -11 -10 -10 -10 -9 -9 -9 -9 -8 -7 -8 -8 -8 -8 -8 -9 -9 -9 -9 -9 -9 -9 -10 -10 -10 -10 -10
-6 -7 -6 -8 -7 -6 -6 -8 -8 -9 -9 -10 -10 -10 -8 -9 -9 -10 -10 -10 -11 -11 -12 -13 -13 -13 -12 -12 -12 -12 -12 -12 -12 -11 -11 -11 -11 -10 -10 -10 -10 -10 -10 -10 -10 -10 -11 -12 -12 -13 -13 -13 -13 -13
-7 -7 -7 -7 -6 -6 -8 -8 -8 -8 -7 -7 -7 -7 -7 -10 -11 -12 -12 -13 -14 -14 -14 -14 -14 -14 -14 -14 -14 -13 -13 -13 -13 -13 -13 -13 -12 -12 -12 -12 -11 -11 -11 -11 -12 -13 -13 -14 -14 -14 -13 -13 -13 -13
-8 -7 -7 -7 -6 -8 -9 -9 -9 -9 -9 -10 -9 -11 -11 -11 -14 -16 -15 -15 -15 -15 -15 -15 -15 -15 -15 -15 -15 -15 -15 -14 -14 -14 -14 -13 -13 -13 -13 -13 -12 -12 -12 -13 -14 -14 -14 -14 -14 -14 -14 -14 -14 -14
-9 -9 -9 -10 -9 -7 -10 -12 -13 -12 -12 -11 -11 -11 -12 -13 -16 -16 -16 -16 -16 -16 -16 -16 -15 -15 -15 -15 -15 -15 -15 -15 -15 -15 -15 -14 -14 -14 -14 -13 -13 -13 -13 -14 -15 -15 -15 -15 -15 -15 -15 -15 -15 -15

GFSWCAN_850_dewp_015.txt.gz
Dewpoint
6 5 5 5 5 4 3 1 -1 -2 -3 -4 -5 -5 -4 -2 1 1 0 -1 2 5 5 4 3 4 4 2 7 5 5 6 6 7 8 8 8 4 3 -1 3 5 7 6 5 6 6 -1 -1 5 2 3 3 4
5 5 5 5 5 5 4 2 0 -1 -2 -3 -3 -3 -3 -2 -0 1 4 -0 -2 3 6 2 1 3 3 3 3 5 3 5 4 7 7 8 8 6 6 5 -2 2 2 3 3 3 -2 -1 0 2 3 3 4 2
3 5 5 5 5 5 5 4 2 1 0 -1 -1 -1 -1 -1 0 1 1 1 0 2 5 5 5 1 0 0 3 5 6 3 5 5 6 6 6 5 6 6 4 -0 -2 3 3 -0 -1 -0 1 3 4 4 3 3
2 3 4 5 5 5 5 5 4 3 2 2 1 1 1 1 1 1 3 2 3 4 5 6 4 4 2 1 1 4 4 3 5 5 5 4 7 3 6 3 3 2 0 3 4 1 0 1 3 3 3 3 3 -0
0 1 2 4 4 5 5 5 5 4 3 3 2 2 3 3 3 3 3 2 2 7 6 7 4 3 3 3 3 3 4 5 6 5 4 6 5 5 5 5 5 1 1 5 5 2 4 4 4 3 3 3 -2 -2
-1 -0 2 2 3 4 4 5 5 5 4 4 4 4 4 4 4 6 6 4 3 3 3 6 6 4 3 4 6 6 6 6 6 6 5 4 4 4 6 6 1 0 1 0 2 3 4 3 3 3 -0 -2 -4 -5
-3 -2 -1 2 2 3 3 4 5 5 5 5 5 5 5 5 5 6 5 6 5 4 4 5 6 4 3 5 5 6 6 6 6 6 6 5 4 4 6 5 0 1 2 1 3 3 3 3 2 -1 -3 -4 -5 -7
-2 -3 -2 -1 1 2 2 3 5 5 4 4 4 5 5 5 5 5 4 2 5 6 5 6 5 4 3 5 5 4 5 5 5 5 5 5 4 5 5 3 2 2 1 2 2 2 3 1 -2 -4 -5 -8 -11 -11
-2 -3 -3 -3 -2 1 1 2 3 5 5 4 5 5 5 5 5 4 4 4 5 5 6 3 4 5 4 3 3 3 4 5 4 4 4 4 5 5 3 2 2 2 2 2 0 -1 -2 -4 -7 -10 -11 -11 -10 -10
-2 -3 -3 -3 -3 -3 -1 1 2 3 5 5 5 5 5 5 5 4 5 4 4 4 4 3 4 5 3 2 2 3 2 5 4 3 2 2 3 3 0 1 1 1 1 -1 -2 -4 -7 -9 -11 -10 -10 -9 -9 -9
-1 -3 -4 -4 -3 -3 -2 1 2 3 4 4 4 4 3 4 5 5 4 4 4 3 3 3 4 4 3 3 3 3 3 3 4 3 4 4 3 1 0 1 0 -1 -2 -5 -8 -10 -11 -10 -10 -9 -8 -7 -6 -6
-1 -2 -3 -3 -1 0 -0 1 3 3 2 3 2 2 3 2 2 3 2 0 1 3 1 1 1 3 2 3 2 0 2 2 5 0 3 2 -1 -0 -0 -2 -3 -6 -8 -10 -10 -10 -9 -9 -8 -6 -7 -7 -7 -9
-1 -2 -2 -2 0 0 0 1 1 2 1 1 1 0 0 -0 2 3 3 3 2 0 0 0 0 1 1 1 0 1 3 4 -1 1 1 -0 -2 -2 -3 -3 -5 -8 -8 -12 -11 -10 -9 -8 -9 -11 -10 -11 -9 -10
-3 -2 -2 -2 -0 1 0 0 0 0 0 -0 -0 1 1 2 1 2 3 2 -0 0 1 1 -0 0 -0 1 0 3 1 -0 1 0 2 -2 -2 -3 -3 -5 -6 -8 -9 -16 -17 -17 -16 -13 -11 -10 -10 -9 -10 -11
-7 -4 -2 -3 -1 1 1 1 0 0 0 -0 -0 1 1 -1 -1 -1 -1 -0 -0 0 0 1 0 1 1 1 1 0 0 1 -0 0 -1 -3 -3 -5 -6 -5 -7 -9 -12 -14 -11 -10 -13 -11 -10 -9 -9 -10 -10 -10
-2 -1 -2 -3 -1 0 0 0 0 0 -2 -2 -1 -0 -1 -0 -1 -1 -0 -1 -0 0 0 0 0 2 1 1 1 1 2 -0 -1 -1 -2 -5 -6 -5 -5 -6 -9 -11 -14 -16 -15 -13 -11 -10 -9 -8 -9 -10 -10 -11
-3 -1 -2 -2 -1 -0 -0 0 -1 -3 -3 -3 -2 -2 -1 -1 -0 -1 -1 -0 -0 0 1 0 1 1 -2 0 0 -2 -0 -1 -2 -2 -5 -6 -6 -8 -11 -11 -12 -14 -15 -14 -12 -10 -9 -9 -8 -8 -11 -7 -5 -8
-3 -2 -1 -2 -1 -1 -0 -1 -2 -2 -2 -3 -1 -2 -3 -2 -1 -1 -1 -1 -1 -1 -2 -1 -4 -1 -1 -1 -1 -2 -3 -3 -4 -5 -7 -8 -7 -6 -6 -6 -7 -7 -7 -8 -10 -10 -9 -8 -7 -6 -6 -6 -5 -5
-3 -2 -1 -2 -1 -0 -1 -2 -3 -3 -3 -3 -3 -3 -3 -3 -2 -2 -2 -1 -1 -2 -4 -3 -0 -2 -3 -5 -3 -2 -2 -4 -5 -7 -7 -6 -7 -7 -11 -13 -13 -12 -11 -9 -7 -5 -6 -6 -6 -6 -5 -5 -5 -5
-3 -1 -1 -1 -2 -2 -3 -4 -6 -4 -4 -3 -3 -2 -3 -3 -4 -3 -2 -1 -2 -3 -1 -1 -3 -4 -4 -5 -6 -5 -6 -6 -6 -5 -6 -7 -8 -7 -6 -6 -6 -6 -6 -6 -6 -6 -5 -4 -5 -5 -5 -5 -6 -6
-2 -2 -1 -2 -2 -6 -4 -3 -4 -4 -4 -4 -3 -3 -4 -4 -4 -4 -3 -3 -2 -2 -4 -4 -3 -3 -4 -7 -8 -7 -7 -7 -7 -7 -7 -7 -7 -7 -7 -7 -6 -6 -6 -6 -8 -7 -8 -8 -7 -4 -5 -7 -7 -6
-2 -3 -3 -1 -3 -5 -5 -5 -4 -4 -4 -4 -4 -4 -3 -3 -4 -4 -4 -4 -4 -4 -5 -5 -5 -5 -5 -5 -6 -9 -11 -12 -11 -9 -8 -8 -6 -6 -6 -7 -6 -7 -11 -12 -11 -11 -10 -6 -5 -6 -7 -6 -6 -6
-3 -2 -3 -3 -4 -5 -5 -5 -4 -5 -4 -4 -4 -4 -4 -4 -5 -6 -5 -6 -5 -5 -6 -6 -6 -5 -7 -8 -11 -14 -14 -14 -11 -8 -7 -6 -6 -6 -8 -7 -6 -7 -10 -12 -6 -6 -6 -5 -5 -5 -6 -6 -6 -7
-3 -3 -4 -5 -4 -5 -5 -4 -5 -5 -5 -5 -5 -5 -6 -5 -6 -6 -5 -6 -7 -6 -7 -8 -7 -8 -8 -11 -10 -10 -9 -9 -8 -6 -5 -6 -6 -6 -6 -6 -7 -7 -5 -5 -5 -6 -6 -6 -5 -6 -6 -6 -7 -8
-4 -5 -5 -5 -5 -6 -5 -5 -5 -6 -5 -5 -5 -5 -5 -6 -5 -6 -5 -8 -4 -4 -5 -6 -7 -8 -9 -8 -8 -8 -8 -8 -7 -7 -7 -7 -7 -6 -6 -6 -6 -5 -5 -6 -6 -6 -6 -6 -6 -7 -7 -8 -8 -8
-5 -5 -5 -6 -6 -6 -6 -5 -6 -6 -6 -5 -5 -6 -6 -5 -5 -6 -9 -4 -4 -5 -9 -8 -7 -6 -7 -7 -6 -6 -6 -6 -7 -7 -7 -6 -5 -5 -5 -5 -6 -6 -5 -6 -6 -6 -7 -7 -7 -8 -8 -8 -8 -9
-6 -6 -6 -7 -7 -7 -6 -6 -7 -6 -6 -6 -6 -6 -5 -6 -7 -8 -6 -8 -6 -9 -9 -8 -9 -7 -7 -7 -8 -9 -10 -10 -9 -8 -8 -8 -8 -7 -7 -7 -6 -6 -7 -7 -7 -8 -8 -8 -8 -9 -9 -9 -9 -9
-5 -6 -6 -6 -6 -6 -6 -7 -6 -6 -6 -7 -6 -6 -6 -7 -7 -7 -9 -10 -10 -9 -9 -9 -9 -10 -11 -11 -12 -11 -11 -11 -11 -11 -10 -9 -8 -8 -8 -8 -9 -9 -9 -9 -9 -9 -9 -9 -9 -9 -9 -9 -10 -10
-5 -5 -6 -7 -6 -6 -6 -6 -6 -7 -7 -7 -6 -6 -6 -8 -10 -10 -11 -10 -9 -10 -10 -11 -12 -13 -12 -12 -12 -12 -12 -13 -13 -12 -12 -11 -11 -11 -11 -11 -11 -10 -10 -10 -10 -10 -10 -10 -10 -10 -10 -11 -11 -11
-6 -5 -5 -6 -6 -6 -4 -5 -4 -6 -8 -6 -6 -7 -9 -10 -11 -10 -11 -11 -12 -13 -13 -13 -13 -13 -13 -14 -14 -13 -13 -14 -14 -14 -14 -14 -14 -13 -13 -13 -12 -12 -11 -11 -11 -11 -11 -11 -11 -12 -12 -13 -13 -13
-7 -6 -6 -6 -6 -4 -5 -7 -8 -8 -8 -7 -6 -6 -7 -11 -13 -12 -13 -13 -14 -14 -15 -14 -14 -15 -15 -15 -15 -15 -15 -15 -15 -15 -14 -14 -14 -14 -14 -14 -13 -13 -13 -12 -12 -12 -12 -12 -13 -13 -13 -14 -14 -14
-6 -6 -6 -6 -6 -6 -8 -8 -6 -6 -5 -6 -6 -8 -10 -10 -11 -15 -15 -15 -15 -15 -15 -15 -15 -16 -15 -16 -16 -16 -16 -16 -16 -16 -16 -16 -15 -15 -15 -14 -14 -14 -14 -14 -13 -13 -13 -13 -14 -14 -14 -15 -15 -15
-8 -8 -7 -7 -7 -7 -7 -10 -9 -9 -8 -9 -9 -10 -11 -11 -13 -16 -16 -16 -16 -16 -16 -17 -17 -16 -16 -16 -17 -17 -17 -17 -17 -17 -16 -16 -16 -16 -16 -15 -15 -15 -15 -15 -15 -15 -14 -14 -15 -15 -16 -16 -17 -17

GFSWCAN_850_dewp_021.txt.gz
Dewpoint
4 4 3 3 2 1 0 -1 -1 -2 -3 -4 -6 -7 -5 -1 0 1 -1 3 3 5 5 5 4 4 4 5 4 5 4 5 5 5 4 4 3 3 3 3 3 2 3 2 3 4 3 -1 -0 1 1 4 4 3
4 4 4 4 4 2 1 0 -1 -2 -3 -4 -5 -6 -6 -2 1 2 -0 0 1 3 4 5 5 5 4 5 5 4 1 6 6 5 3 4 4 5 4 3 2 3 3 3 2 2 -1 -0 -0 1 1 3 3 2
5 4 4 4 4 4 2 1 -0 -1 -2 -4 -4 -6 -6 -4 1 3 3 1 0 0 3 2 3 4 4 5 5 4 5 4 5 6 5 4 3 3 3 4 2 0 1 3 3 2 1 2 2 3 4 3 2 1
6 5 5 4 4 4 3 2 1 -1 -2 -2 -3 -4 -5 -4 -1 0 1 3 3 2 5 7 5 2 2 5 5 4 3 4 5 6 4 3 2 4 3 2 2 1 2 2 2 1 1 3 3 3 3 3 2 0
5 5 5 5 5 4 4 4 2 1 -0 -1 -2 -3 -3 -3 -2 -0 1 2 5 4 4 7 6 6 3 1 2 4 4 4 6 5 3 2 3 3 5 3 3 3 2 3 2 2 3 4 4 3 3 3 -0 -0
3 4 5 5 5 4 4 4 4 3 2 1 1 -0 -1 -1 -0 1 2 1 2 6 3 4 6 5 4 3 6 4 5 5 5 4 4 4 5 3 3 3 3 2 1 1 2 4 3 4 4 3 2 1 -2 -4
1 2 3 4 5 4 5 4 4 4 4 3 2 1 1 1 2 5 4 6 3 3 2 5 5 5 5 6 7 7 6 6 6 6 6 6 5 5 2 3 2 1 -0 1 2 3 3 2 2 0 0 -3 -4 -10
-1 1 1 2 3 4 5 4 4 4 4 4 4 3 3 3 4 5 5 3 4 4 4 4 4 4 5 6 5 5 6 6 5 5 6 5 5 5 4 4 2 2 1 2 3 3 3 2 1 -2 -3 -8 -10 -10
-3 -3 -3 -1 1 2 3 4 4 5 4 4 4 4 4 4 4 4 5 4 4 5 5 4 2 2 4 4 4 4 4 3 4 4 5 5 2 4 4 3 2 1 2 2 2 2 0 -0 1 -7 -10 -9 -9 -9
-3 -4 -4 -4 -5 -3 -0 2 3 4 4 4 4 4 5 3 4 4 4 4 3 5 5 4 4 3 3 3 3 3 3 2 3 2 3 2 3 3 2 2 2 2 2 1 1 2 1 -8 -9 -9 -9 -9 -8 -9
-3 -3 -4 -4 -4 -3 -1 -0 2 4 5 5 5 5 5 5 4 3 5 4 4 3 5 4 4 3 3 2 2 3 2 1 3 1 2 3 3 1 -0 2 2 2 2 1 -1 -4 -7 -9 -9 -9 -8 -8 -10 -16
-2 -3 -3 -3 -2 -0 2 2 2 3 4 4 4 4 4 4 4 3 2 2 2 3 2 3 4 4 4 3 2 2 2 1 3 2 3 2 -0 2 2 1 -0 -1 -3 -6 -7 -9 -9 -9 -9 -10 -14 -16 -15 -13
-2 -2 -3 -1 -1 1 1 2 3 3 3 3 2 2 2 0 2 2 3 2 2 1 1 2 1 2 2 2 1 1 2 2 2 2 1 -0 1 1 1 -1 -5 -8 -9 -9 -10 -10 -10 -12 -17 -19 -18 -15 -13 -14
-2 -3 -3 -1 -1 0 1 1 2 2 2 1 0 1 1 1 1 0 0 0 -0 0 0 1 0 1 1 1 0 2 1 1 2 1 -1 1 1 0 -2 -4 -6 -8 -8 -10 -12 -12 -14 -18 -18 -17 -14 -13 -13 -12
-8 -3 -3 -2 -0 -1 -1 -1 -1 -2 -1 0 0 1 -0 -1 -1 -1 -1 -1 -0 -0 0 0 -0 0 -0 0 -0 0 1 2 2 2 0 1 -0 -2 -3 -5 -6 -7 -8 -8 -10 -14 -15 -16 -15 -15 -14 -13 -13 -11
-6 -4 -3 -2 -1 -1 -1 -2 -1 -2 -1 -1 -1 -1 -1 -0 -1 -1 -1 -1 -0 -0 -0 0 -0 1 0 0 1 2 2 2 1 0 -1 -3 -4 -4 -5 -5 -6 -7 -10 -12 -12 -14 -14 -13 -13 -13 -12 -12 -10 -8
-1 -1 -2 -2 -1 -2 -2 -0 -0 -2 -3 -1 -2 -1 -1 -1 -1 -0 -1 -1 -0 -0 -0 0 1 -0 -1 0 1 0 1 -0 -1 -3 -4 -5 -5 -5 -7 -11 -10 -9 -9 -11 -12 -13 -13 -12 -11 -10 -9 -8 -7 -6
-3 -3 -2 -1 -1 -1 -1 -1 -2 -2 -2 -2 -1 -2 -1 -1 -2 -2 -1 -1 -1 -1 -0 -1 -1 -0 0 0 0 -0 -2 -3 -2 -4 -5 -5 -7 -8 -9 -8 -7 -10 -13 -14 -14 -12 -11 -10 -9 -9 -8 -9 -8 -8
-4 -3 -3 -2 -2 -2 -2 -2 -2 -2 -2 -2 -2 -2 -3 -3 -3 -2 -2 -1 -1 -1 -2 -2 -2 -1 -2 -3 -1 -2 -3 -4 -5 -6 -7 -7 -7 -6 -6 -7 -8 -9 -11 -11 -10 -10 -9 -8 -8 -8 -9 -10 -8 -7
-4 -3 -3 -1 -3 -2 -2 -3 -3 -3 -3 -2 -3 -3 -3 -3 -4 -3 -2 -2 -2 -2 -2 -3 -2 -2 -3 -4 -4 -4 -5 -5 -5 -6 -6 -6 -6 -7 -7 -7 -7 -7 -7 -8 -8 -9 -9 -10 -10 -10 -10 -8 -7 -7
-3 -3 -2 -2 -2 -2 -3 -3 -3 -3 -4 -3 -3 -3 -4 -4 -4 -3 -3 -3 -3 -3 -2 -3 -3 -3 -3 -4 -4 -6 -7 -7 -7 -6 -6 -8 -10 -9 -9 -9 -7 -6 -6 -5 -6 -8 -9 -9 -10 -9 -7 -8 -8 -8
-3 -3 -2 -3 -2 -4 -3 -3 -3 -4 -4 -4 -4 -4 -5 -5 -5 -4 -4 -4 -4 -4 -4 -4 -4 -4 -3 -3 -4 -5 -6 -9 -11 -8 -7 -6 -6 -6 -5 -5 -6 -6 -7 -8 -8 -7 -7 -7 -6 -6 -6 -6 -6 -8
-3 -3 -3 -3 -3 -4 -4 -3 -4 -5 -5 -5 -4 -4 -5 -5 -5 -5 -5 -5 -4 -4 -5 -5 -5 -5 -7 -6 -8 -9 -7 -7 -7 -6 -7 -8 -10 -12 -10 -7 -5 -5 -4 -5 -4 -4 -5 -5 -5 -7 -6 -6 -8 -7
-4 -3 -3 -3 -3 -4 -4 -4 -5 -5 -5 -5 -5 -5 -4 -6 -5 -5 -7 -5 -3 -5 -6 -6 -7 -7 -8 -7 -6 -6 -6 -6 -7 -6 -7 -10 -13 -14 -13 -9 -8 -9 -8 -8 -8 -8 -7 -8 -8 -6 -7 -8 -7 -7
-4 -4 -4 -4 -4 -4 -5 -5 -5 -5 -7 -6 -7 -7 -5 -6 -8 -8 -8 -4 -5 -4 -4 -5 -5 -6 -5 -5 -5 -6 -6 -7 -10 -11 -14 -15 -15 -14 -13 -11 -10 -8 -8 -8 -9 -9 -9 -9 -9 -8 -8 -8 -7 -8
-4 -4 -4 -4 -4 -4 -5 -5 -4 -5 -7 -7 -6 -5 -5 -6 -8 -8 -5 -6 -6 -6 -7 -5 -6 -5 -6 -7 -8 -9 -10 -11 -14 -15 -15 -13 -11 -10 -10 -10 -11 -11 -11 -12 -11 -11 -10 -10 -10 -9 -8 -8 -8 -8
-4 -4 -5 -5 -4 -4 -4 -4 -4 -4 -5 -6 -6 -7 -8 -8 -9 -6 -7 -7 -7 -8 -8 -8 -8 -8 -9 -9 -10 -11 -13 -13 -14 -14 -14 -11 -11 -11 -11 -13 -13 -13 -13 -13 -12 -12 -12 -11 -11 -11 -10 -10 -10 -10
-5 -5 -5 -4 -4 -5 -5 -5 -6 -7 -7 -6 -6 -9 -10 -10 -7 -8 -8 -9 -9 -9 -9 -10 -10 -10 -11 -11 -11 -12 -13 -14 -14 -15 -12 -11 -12 -15 -15 -16 -16 -15 -15 -15 -14 -14 -13 -13 -13 -12 -12 -12 -11 -11
-5 -5 -7 -6 -5 -5 -6 -6 -6 -6 -6 -6 -8 -8 -6 -9 -9 -10 -10 -11 -11 -11 -11 -10 -11 -13 -13 -13 -13 -13 -14 -15 -17 -17 -18 -18 -18 -19 -18 -17 -17 -17 -17 -16 -16 -15 -14 -14 -14 -13 -12 -12 -12 -13
-6 -6 -6 -6 -7 -6 -4 -4 -4 -5 -6 -5 -5 -7 -8 -11 -11 -12 -12 -12 -11 -12 -12 -13 -14 -14 -14 -15 -16 -16 -15 -16 -16 -17 -18 -18 -18 -19 -19 -19 -18 -18 -17 -17 -16 -16 -15 -15 -15 -14 -14 -13 -13 -14
-6 -6 -6 -6 -6 -5 -6 -6 -6 -7 -8 -5 -5 -6 -9 -11 -12 -12 -12 -13 -14 -14 -14 -14 -15 -16 -17 -17 -18 -18 -18 -17 -18 -19 -18 -19 -19 -20 -20 -20 -20 -20 -19 -17 -17 -17 -16 -17 -16 -16 -16 -15 -15 -15
-6 -7 -7 -7 -5 -6 -6 -6 -7 -6 -6 -7 -7 -8 -9 -10 -13 -14 -14 -14 -14 -15 -16 -18 -20 -21 -21 -19 -18 -19 -18 -19 -19 -20 -19 -19 -20 -20 -21 -21 -20 -20 -19 -18 -18 -18 -18 -18 -18 -18 -17 -17 -17 -17
-7 -7 -7 -7 -7 -6 -7 -9 -8 -8 -7 -8 -8 -9 -10 -11 -13 -14 -15 -15 -16 -18 -21 -22 -22 -21 -21 -21 -21 -21 -20 -21 -21 -21 -20 -20 -20 -21 -21 -21 -21 -20 -19 -19 -19 -19 -19 -19 -19 -19 -18 -18 -18 -18

GFSWCAN_850_dewp_024.txt.gz
Dewpoint
5 3 1 0 0 -0 -1 -1 -2 -3 -4 -6 -6 -5 -2 -1 -1 -1 -0 2 3 4 5 5 5 4 4 3 4 5 3 4 3 1 0 4 1 2 2 3 2 2 3 2 1 -0 1 -1 0 1 -0 3 3 3
5 3 1 0 0 -0 -0 -1 -2 -2 -3 -5 -6 -5 -3 -1 1 -1 0 2 2 1 5 5 5 5 4 3 3 4 -1 4 3 3 2 4 1 4 2 3 1 1 0 2 2 2 -2 -1 -1 -1 -0 2 3 3
5 3 2 1 1 1 0 -1 -1 -2 -3 -4 -5 -6 -5 -2 0 1 -1 -0 -0 1 4 5 4 5 6 5 3 2 5 4 4 2 4 2 0 2 3 3 3 1 1 3 2 1 1 -0 1 0 2 2 3 2
5 4 4 3 2 2 1 -0 -1 -2 -3 -3 -4 -5 -5 -4 -0 2 0 -0 -1 -1 2 6 5 3 5 6 5 4 3 4 4 4 3 2 0 2 1 0 1 -0 2 2 1 1 3 3 2 2 3 3 2 1
5 5 4 4 4 3 2 1 -0 -1 -2 -2 -4 -5 -5 -4 -2 -1 0 1 1 0 4 6 6 5 2 3 5 5 4 4 5 5 2 2 2 2 2 1 2 2 1 2 2 0 0 1 3 3 3 3 2 0
5 5 4 4 4 4 3 2 1 0 -1 -1 -2 -3 -4 -2 -1 -1 -1 2 3 4 2 1 5 4 3 4 4 5 5 5 5 4 3 3 5 2 3 5 3 2 2 2 2 2 2 3 3 3 3 1 0 -4
5 5 5 5 4 4 4 3 3 2 1 0 -1 -2 -2 -1 -0 -0 1 4 4 4 1 4 5 4 5 6 6 6 6 6 6 6 5 5 5 5 2 3 2 0 -0 1 1 3 4 4 3 2 1 0 -5 -7
2 4 4 5 4 4 4 4 4 3 3 2 2 1 0 1 4 4 4 4 4 2 3 2 1 4 5 6 6 6 6 6 6 5 6 5 4 3 4 4 3 3 2 2 3 3 2 2 1 1 1 -6 -9 -10
1 1 2 3 4 5 4 4 4 4 4 4 3 3 2 2 2 4 5 4 5 4 4 3 1 2 5 4 4 5 5 2 4 3 4 4 2 3 3 3 3 2 3 3 3 3 2 1 -1 -4 -8 -10 -10 -9
-3 -3 -3 -2 1 3 4 5 5 4 4 4 4 2 3 3 4 3 4 3 3 5 5 3 3 2 4 3 3 3 3 1 3 2 4 2 3 3 2 2 2 2 2 2 2 2 2 1 -6 -6 -9 -9 -8 -10
-3 -4 -5 -4 -3 -2 0 3 4 5 4 4 4 4 5 4 3 3 3 3 4 3 4 4 4 3 3 2 2 2 1 1 2 -0 1 1 2 1 1 1 2 2 2 2 2 1 -4 -6 -8 -7 -6 -8 -12 -15
-3 -3 -2 -0 1 1 0 2 4 5 5 4 4 5 5 4 3 3 2 2 2 3 2 3 3 4 4 2 2 2 1 1 2 1 2 3 0 1 0 -1 -1 -0 -2 -2 -4 -3 -4 -3 -2 -8 -14 -18 -18 -18
-3 -1 -0 1 1 2 1 2 3 4 4 4 3 3 2 1 2 4 4 2 2 1 2 2 2 3 3 3 2 1 2 2 1 2 2 1 1 -2 -7 -6 -7 -6 -2 -4 -3 -1 -5 -11 -15 -19 -20 -18 -16 -15
-3 -1 -0 0 -0 0 2 2 3 3 2 2 1 1 1 1 0 -0 0 0 -0 0 0 1 0 1 1 1 0 2 1 0 2 1 -1 1 2 1 -1 -6 -8 -9 -8 -11 -12 -11 -13 -15 -16 -17 -16 -15 -13 -12
-3 -2 -1 -1 -1 -1 -1 -1 -0 -0 -1 -0 -1 0 -1 -2 -2 -1 -1 -0 -0 -0 0 0 0 0 -0 -0 -0 -0 0 1 1 1 0 -0 1 -1 -7 -8 -7 -8 -7 -8 -10 -13 -14 -15 -15 -15 -13 -12 -11 -11
-4 -3 -2 -1 -1 -2 -2 -2 -3 -3 -2 -1 -2 -2 -1 -1 -1 -1 -1 -1 -0 -0 -0 0 -0 1 -0 -0 0 1 1 0 0 -0 0 -0 -1 -2 -1 -1 -7 -8 -10 -11 -12 -14 -14 -13 -13 -12 -12 -11 -9 -8
-3 -2 -2 -2 -3 -2 -2 -2 -2 -4 -2 -2 -1 -1 -1 -1 -1 -1 -1 -1 -0 -0 -1 -1 -1 -1 -1 -1 0 0 -0 -0 -0 -1 -2 -2 -2 -3 -3 -5 -8 -8 -10 -12 -13 -13 -13 -11 -10 -10 -9 -11 -9 -9
-3 -3 -2 -2 -2 -2 -3 -3 -3 -2 -2 -1 -1 -1 -1 -1 -1 -1 -1 -1 -1 -1 -1 -2 -1 -1 -1 -0 -0 -0 -0 -1 -1 -1 -2 -5 -5 -7 -9 -8 -6 -8 -8 -10 -11 -11 -10 -10 -10 -10 -11 -11 -10 -11
-5 -4 -3 -3 -3 -3 -3 -2 -2 -3 -3 -3 -2 -2 -3 -2 -2 -2 -2 -2 -2 -2 -3 -2 -3 -2 -2 -3 -2 -2 -3 -4 -4 -5 -7 -7 -7 -6 -6 -7 -7 -7 -8 -8 -8 -8 -8 -9 -10 -10 -10 -10 -10 -10
-5 -5 -4 -3 -4 -2 -3 -4 -3 -3 -3 -3 -3 -3 -4 -4 -3 -3 -2 -3 -3 -3 -2 -5 -4 -2 -3 -4 -4 -5 -4 -4 -5 -5 -5 -6 -6 -8 -8 -8 -7 -6 -6 -6 -6 -7 -7 -7 -7 -7 -6 -7 -7 -8
-4 -4 -4 -4 -3 -3 -3 -4 -4 -4 -4 -4 -4 -4 -4 -4 -4 -4 -3 -3 -4 -3 -2 -3 -3 -3 -3 -4 -4 -5 -6 -6 -7 -7 -8 -9 -6 -6 -6 -6 -6 -6 -6 -6 -6 -6 -6 -5 -5 -6 -5 -5 -5 -5
-4 -4 -4 -4 -3 -3 -4 -3 -3 -4 -4 -4 -4 -5 -5 -5 -5 -5 -5 -4 -5 -4 -4 -4 -4 -3 -2 -3 -4 -6 -8 -9 -8 -6 -6 -6 -8 -10 -12 -12 -11 -10 -7 -6 -5 -5 -6 -6 -7 -8 -8 -8 -8 -7
-5 -5 -4 -3 -3 -3 -3 -3 -4 -5 -5 -4 -3 -4 -5 -5 -5 -5 -5 -5 -5 -4 -5 -5 -5 -6 -5 -5 -6 -8 -7 -6 -6 -6 -7 -7 -9 -11 -14 -16 -16 -16 -14 -11 -10 -9 -10 -10 -10 -10 -8 -7 -7 -7
-4 -3 -3 -4 -3 -4 -3 -3 -3 -3 -6 -5 -4 -5 -6 -6 -6 -6 -9 -4 -4 -4 -6 -7 -6 -6 -6 -6 -6 -6 -6 -6 -7 -8 -10 -12 -14 -16 -15 -13 -11 -11 -10 -10 -11 -11 -12 -12 -12 -11 -11 -10 -9 -8
-4 -4 -4 -4 -4 -4 -7 -6 -4 -5 -7 -6 -8 -8 -5 -6 -10 -11 -10 -5 -5 -5 -5 -5 -6 -5 -5 -6 -6 -6 -7 -9 -10 -13 -15 -16 -16 -14 -13 -12 -12 -12 -13 -14 -14 -14 -13 -13 -12 -12 -11 -11 -10 -9
-7 -5 -5 -5 -5 -6 -7 -7 -7 -6 -8 -7 -8 -5 -5 -9 -9 -9 -6 -7 -6 -6 -7 -6 -6 -6 -6 -7 -8 -9 -10 -12 -14 -15 -15 -14 -13 -12 -12 -13 -14 -16 -16 -16 -15 -15 -15 -15 -14 -13 -13 -12 -12 -11
-7 -7 -5 -5 -4 -4 -4 -4 -4 -4 -5 -5 -6 -6 -9 -9 -11 -7 -8 -8 -8 -7 -8 -9 -9 -8 -8 -9 -10 -11 -12 -14 -15 -15 -14 -13 -12 -12 -15 -16 -17 -17 -17 -17 -17 -17 -16 -15 -14 -14 -14 -14 -13 -12
-5 -5 -7 -5 -4 -4 -5 -5 -5 -5 -7 -5 -6 -8 -8 -10 -8 -9 -9 -9 -9 -9 -9 -10 -10 -10 -10 -11 -12 -13 -13 -14 -15 -16 -14 -12 -12 -18 -21 -22 -22 -21 -21 -20 -18 -17 -17 -16 -15 -15 -15 -14 -13 -13
-5 -5 -5 -6 -5 -5 -5 -6 -6 -4 -4 -6 -9 -11 -8 -10 -10 -10 -10 -10 -10 -10 -11 -11 -11 -11 -12 -13 -13 -14 -16 -18 -21 -23 -24 -24 -24 -23 -23 -22 -22 -22 -22 -22 -21 -19 -17 -16 -16 -16 -15 -15 -14 -14
-6 -5 -6 -6 -8 -6 -5 -5 -5 -5 -4 -5 -6 -8 -10 -12 -12 -12 -12 -12 -12 -12 -12 -12 -13 -14 -14 -15 -16 -17 -20 -22 -21 -21 -21 -21 -22 -22 -22 -22 -22 -22 -22 -21 -21 -20 -19 -17 -17 -17 -17 -16 -16 -16
-6 -7 -7 -7 -5 -6 -7 -6 -6 -6 -6 -6 -6 -7 -10 -12 -13 -13 -13 -13 -13 -14 -14 -14 -14 -16 -18 -21 -22 -21 -20 -20 -20 -20 -20 -21 -21 -21 -21 -21 -21 -21 -21 -21 -20 -19 -19 -18 -18 -18 -18 -18 -18 -18
-7 -7 -8 -8 -6 -7 -7 -7 -7 -7 -7 -7 -8 -9 -11 -12 -14 -14 -15 -15 -14 -15 -16 -19 -22 -23 -22 -22 -21 -21 -21 -21 -20 -21 -21 -21 -21 -21 -21 -21 -21 -21 -21 -20 -20 -19 -19 -19 -19 -19 -19 -19 -19 -19
-8 -8 -8 -7 -7 -7 -8 -10 -8 -7 -6 -7 -9 -10 -11 -11 -14 -14 -15 -15 -16 -18 -21 -21 -22 -21 -21 -21 -21 -21 -21 -21 -21 -21 -21 -21 -21 -21 -21 -21 -21 -21 -21 -20 -20 -20 -20 -20 -20 -20 -20 -20 -20 -20

GFSWCAN_850_dewp_027.txt.gz
Dewpoint
1 1 0 -0 -0 -1 -2 -3 -4 -4 -4 -3 0 2 1 1 2 -0 3 2 2 5 6 6 5 4 4 3 3 4 3 3 1 0 -1 1 -1 2 2 2 3 3 4 3 2 0 1 -3 -0 1 -1 -2 1 3
0 0 0 0 0 -1 -2 -2 -3 -4 -5 -3 -2 -0 0 0 -1 -0 1 2 2 2 6 6 6 5 3 2 2 4 2 3 2 1 0 1 1 3 1 2 0 1 -0 1 1 1 -2 -1 -0 -1 -2 -2 2 2
2 1 1 1 0 -1 -1 -2 -2 -3 -5 -5 -4 -3 -1 0 -0 -2 1 2 0 4 5 5 6 6 6 4 2 2 2 2 2 0 3 1 -1 1 3 3 2 1 -1 1 1 -1 -0 -2 -1 -0 -0 1 1 3
2 2 1 1 0 -1 -1 -1 -2 -3 -4 -5 -6 -5 -3 -2 -1 -1 -1 -1 -3 -2 3 5 4 5 6 6 4 3 2 2 2 2 2 1 -2 1 0 0 1 0 1 1 1 1 2 2 0 0 1 2 2 3
2 2 2 2 2 0 -0 -1 -1 -3 -3 -5 -5 -5 -5 -3 -1 -1 -1 -1 -2 -2 3 6 5 4 3 5 6 5 4 3 4 4 1 2 0 1 1 0 2 1 1 1 2 -1 1 0 0 1 2 3 2 2
5 4 4 2 2 1 1 -0 -1 -2 -3 -4 -4 -5 -5 -4 -3 -2 -2 1 2 -1 -1 2 5 4 4 4 4 5 5 5 5 4 3 2 2 2 3 4 3 1 -1 -1 -0 0 1 2 2 2 3 2 2 1
5 4 4 4 3 2 2 1 -0 -1 -2 -3 -3 -4 -4 -3 -3 -5 -3 2 3 2 -1 4 4 4 5 6 6 6 5 6 5 4 4 3 5 4 2 4 1 -1 -1 -1 0 2 3 3 3 3 3 3 1 -3
4 4 4 4 4 4 3 2 1 0 -0 -1 -1 -2 -1 -1 -0 2 4 3 4 1 1 1 0 4 5 6 6 6 6 6 6 5 5 4 4 2 3 3 2 2 3 3 2 2 2 2 3 3 3 -0 -7 -4
4 5 5 5 4 4 4 4 3 2 2 2 1 1 1 2 3 3 4 4 4 2 2 2 0 1 5 4 4 5 5 2 4 3 3 3 2 4 3 3 2 2 2 3 3 3 3 3 3 2 -2 -3 -2 -7
0 3 4 5 4 4 4 4 4 4 4 3 2 1 2 2 3 3 3 2 3 4 4 2 2 2 4 3 3 2 2 1 3 1 4 2 3 3 1 1 1 2 2 2 3 3 2 -3 -4 -3 -1 -1 -8 -8
-0 -2 -1 3 4 5 4 4 4 4 3 3 2 3 4 4 3 3 3 2 3 3 4 3 3 2 2 2 1 2 1 1 2 -1 2 1 1 0 0 1 2 2 2 3 2 2 -1 -2 -1 -2 -6 -5 -3 -8
1 -0 -1 -0 -1 2 4 4 4 4 3 3 3 4 4 3 3 1 1 2 2 3 2 3 3 3 3 2 1 2 1 1 2 1 2 1 -0 -5 -5 -5 -4 -2 0 -1 -1 -0 -1 -2 -3 -2 -2 -8 -16 -18
1 1 1 1 2 2 3 4 4 4 4 4 4 4 3 2 3 4 4 2 2 1 1 2 2 2 3 3 1 1 2 2 1 2 3 1 -3 -6 -3 -2 -0 0 -0 -0 -1 -1 -2 -2 -6 -15 -17 -18 -17 -16
0 0 0 0 1 2 3 3 4 4 3 2 2 1 1 1 -0 -0 0 0 -0 0 1 1 1 1 1 1 0 2 1 0 2 2 -1 0 -0 -0 -3 -6 -5 -7 -10 -11 -9 -5 -9 -14 -15 -17 -16 -15 -14 -13
-1 -1 -1 -2 -1 -1 1 3 3 1 -1 -0 -0 -0 -1 -2 -2 -1 -1 -0 -0 -0 0 1 0 0 -0 0 -0 -0 0 1 0 -1 -1 -1 -1 -1 -6 -5 -3 -8 -7 -9 -11 -12 -14 -14 -15 -15 -14 -12 -11 -10
-3 -2 -3 -2 -3 -3 -2 -2 -1 -3 -2 -2 -2 -1 -1 -1 -1 -1 -1 -1 -0 -0 -0 0 -0 0 -0 -0 -2 -1 -1 -2 -2 -1 -1 -0 -2 -1 -1 -2 -6 -6 -5 -10 -12 -13 -13 -13 -13 -12 -12 -12 -10 -9
-5 -4 -3 -3 -3 -3 -3 -3 -4 -4 -2 -3 -1 -1 -1 -1 -1 -1 -1 -1 -0 -0 -1 -1 -2 -1 -1 -1 -0 -0 -1 -1 -1 -2 -3 -2 -2 -2 -2 -2 -6 -6 -9 -9 -11 -12 -12 -11 -11 -11 -11 -12 -11 -11
-7 -5 -4 -4 -4 -4 -4 -4 -3 -2 -2 -1 -2 -1 -1 -1 -1 -1 -1 -1 -1 -1 -1 -3 -1 -3 -3 -2 -1 -1 -1 -3 -2 -2 -1 -1 -3 -4 -6 -6 -6 -6 -7 -7 -8 -7 -7 -8 -9 -10 -9 -8 -8 -8
-6 -6 -7 -5 -5 -4 -3 -3 -3 -3 -2 -2 -2 -2 -2 -2 -2 -2 -2 -2 -2 -2 -3 -2 -5 -4 -3 -2 -1 -1 -1 -1 -2 -2 -4 -6 -6 -6 -6 -7 -7 -7 -6 -6 -6 -6 -6 -6 -5 -5 -5 -6 -6 -6
-7 -6 -7 -5 -4 -4 -4 -3 -3 -4 -3 -3 -3 -3 -3 -3 -3 -3 -3 -3 -3 -3 -2 -5 -5 -2 -3 -4 -3 -3 -3 -4 -5 -6 -5 -6 -7 -8 -8 -7 -7 -7 -8 -8 -8 -8 -9 -8 -7 -7 -6 -7 -7 -8
-9 -7 -6 -5 -4 -4 -4 -4 -4 -4 -4 -4 -3 -4 -4 -4 -4 -4 -4 -4 -4 -3 -3 -2 -3 -4 -4 -5 -5 -5 -5 -6 -6 -6 -7 -7 -6 -6 -8 -10 -12 -13 -13 -14 -14 -13 -12 -12 -11 -12 -12 -12 -11 -9
-6 -5 -5 -6 -4 -4 -4 -4 -4 -4 -5 -4 -5 -5 -5 -5 -5 -5 -5 -5 -5 -4 -3 -4 -4 -3 -3 -3 -5 -6 -7 -9 -9 -8 -6 -6 -8 -9 -10 -11 -12 -14 -15 -15 -13 -13 -12 -12 -12 -12 -12 -12 -12 -11
-7 -7 -6 -4 -4 -4 -3 -4 -4 -5 -5 -3 -3 -4 -5 -5 -5 -5 -6 -6 -5 -4 -4 -4 -5 -5 -5 -4 -5 -6 -6 -6 -6 -6 -7 -9 -11 -13 -14 -14 -15 -14 -13 -13 -13 -14 -14 -15 -15 -15 -14 -14 -13 -12
-6 -4 -4 -4 -4 -5 -4 -3 -3 -4 -6 -4 -4 -5 -6 -6 -6 -6 -8 -5 -5 -5 -5 -5 -5 -5 -5 -5 -6 -6 -7 -7 -8 -10 -11 -12 -14 -14 -14 -14 -13 -13 -14 -15 -16 -17 -17 -17 -17 -16 -16 -15 -14 -13
-5 -5 -5 -6 -4 -5 -11 -9 -5 -6 -8 -5 -5 -5 -5 -6 -8 -7 -10 -6 -6 -5 -5 -5 -5 -5 -6 -6 -6 -7 -8 -9 -9 -11 -13 -14 -14 -13 -13 -13 -14 -15 -17 -19 -21 -21 -21 -20 -19 -18 -17 -16 -15 -14
-8 -5 -6 -5 -6 -7 -9 -9 -9 -8 -8 -6 -6 -6 -5 -8 -6 -8 -6 -7 -7 -7 -7 -6 -6 -7 -7 -8 -8 -8 -9 -11 -13 -15 -15 -14 -14 -13 -14 -15 -17 -21 -22 -23 -23 -23 -23 -21 -20 -18 -17 -16 -16 -15
-9 -9 -5 -5 -4 -4 -5 -4 -4 -5 -5 -5 -7 -7 -7 -6 -7 -8 -8 -8 -8 -8 -8 -8 -8 -8 -8 -9 -10 -11 -12 -14 -15 -15 -15 -14 -13 -13 -16 -20 -23 -23 -23 -23 -23 -22 -22 -21 -21 -19 -17 -16 -16 -15
-5 -5 -6 -5 -5 -4 -5 -5 -5 -5 -5 -5 -5 -6 -6 -8 -8 -10 -10 -9 -9 -9 -9 -9 -10 -10 -11 -11 -12 -12 -13 -14 -17 -18 -16 -17 -20 -22 -22 -23 -23 -23 -23 -23 -23 -22 -22 -21 -19 -18 -17 -16 -16 -16
-5 -5 -5 -6 -5 -5 -5 -5 -6 -5 -5 -5 -9 -8 -10 -11 -11 -11 -11 -11 -11 -10 -10 -11 -11 -12 -12 -12 -13 -14 -16 -20 -22 -23 -23 -23 -23 -23 -23 -22 -22 -22 -22 -22 -22 -22 -21 -20 -18 -18 -18 -18 -17 -17
-6 -6 -6 -6 -7 -6 -6 -6 -6 -6 -6 -6 -7 -9 -11 -13 -12 -12 -12 -12 -12 -12 -12 -12 -13 -13 -14 -15 -17 -21 -23 -23 -22 -23 -23 -23 -22 -22 -22 -22 -22 -22 -22 -22 -22 -22 -21 -20 -19 -19 -19 -19 -19 -19
-6 -7 -7 -8 -6 -6 -7 -7 -7 -6 -6 -6 -7 -8 -11 -13 -14 -14 -14 -14 -14 -14 -14 -14 -14 -17 -21 -22 -22 -21 -20 -21 -22 -22 -22 -21 -21 -21 -21 -21 -22 -22 -22 -22 -21 -21 -20 -20 -20 -20 -20 -20 -20 -19
-8 -7 -7 -8 -7 -8 -8 -8 -8 -8 -8 -8 -9 -9 -11 -12 -14 -15 -15 -15 -15 -15 -16 -19 -22 -22 -22 -22 -22 -22 -23 -23 -22 -22 -22 -21 -21 -21 -21 -23 -24 -22 -21 -21 -21 -21 -20 -20 -20 -20 -20 -20 -20 -20
-8 -8 -8 -8 -7 -8 -8 -10 -9 -8 -8 -9 -11 -11 -12 -12 -15 -15 -15 -15 -16 -18 -20 -21 -22 -22 -22 -23 -24 -25 -26 -26 -26 -25 -23 -22 -22 -23 -24 -23 -22 -21 -21 -21 -21 -21 -20 -20 -20 -20 -20 -20 -21 -21

GFSWCAN_850_dewp_033.txt.gz
Dewpoint
3 4 3 1 -0 -2 -2 0 1 2 3 4 3 0 -1 -1 1 1 4 5 3 6 6 5 3 2 3 2 5 4 3 3 1 3 4 2 3 2 1 0 4 4 5 4 1 2 3 -4 -0 2 0 -3 -4 -1
4 3 1 -0 -2 -2 1 2 3 4 4 4 3 1 0 -1 0 1 4 5 4 5 6 6 5 3 2 1 2 3 2 2 1 3 0 1 3 2 1 3 1 2 2 3 1 2 -3 -4 -1 -2 -1 -2 -3 -1
2 1 -1 -2 0 2 2 2 4 5 5 4 4 3 1 -1 0 3 3 5 4 6 6 6 6 5 3 2 2 2 1 2 0 -1 -1 1 2 1 4 3 2 1 -1 1 0 -2 -1 -3 -3 -4 -4 -2 -1 -0
1 1 1 1 1 1 2 2 3 4 6 5 4 2 0 1 4 3 3 4 3 4 5 5 6 6 5 3 2 1 1 1 -0 -1 -0 1 3 -0 1 1 2 1 -0 1 1 -0 -2 -3 -3 -3 -2 -1 -1 -0
2 1 1 1 2 1 1 0 0 2 5 5 3 3 4 4 4 1 3 1 0 -3 4 5 5 6 6 5 4 2 1 -0 -0 1 2 3 -1 1 1 1 2 0 1 3 3 -3 -3 -3 -1 0 0 1 1 2
2 2 1 1 0 0 1 -0 -2 -1 2 4 4 3 4 4 4 2 -1 -1 -4 -3 3 4 5 6 6 5 4 3 3 2 3 3 3 2 1 1 3 3 1 1 1 0 -1 0 1 1 1 2 2 2 2 3
2 1 1 1 0 1 -0 -2 -3 -1 -1 3 4 4 3 1 -1 -4 -2 -0 -3 -5 -3 3 3 5 6 6 6 6 5 5 4 4 2 2 3 2 2 4 2 2 2 3 3 3 2 2 3 3 3 3 2 1
2 2 1 1 1 1 -1 -1 -1 -1 -1 1 1 -0 -1 -2 -4 2 3 1 -2 -5 -5 1 1 4 5 6 5 5 6 5 5 4 3 2 3 2 4 0 -1 1 1 2 2 3 3 3 3 2 1 -1 -3 -3
2 3 2 3 2 1 0 -1 -1 1 1 0 -1 -3 -4 -4 -1 4 3 1 -2 -4 -1 -1 1 3 4 4 3 4 4 3 4 3 3 3 2 2 -3 -3 -1 1 1 2 2 2 2 1 -2 -3 -4 -4 -2 -2
3 3 4 4 3 2 1 1 0 0 0 -0 -3 -3 -0 3 2 1 -1 -0 -0 2 3 0 1 2 3 3 2 2 3 2 4 2 3 2 2 -3 -1 -1 -0 1 1 3 2 -2 -1 -1 -1 -1 -2 -1 -1 -2
4 4 4 4 3 3 2 2 1 0 0 -1 -0 3 3 2 -0 0 2 1 2 1 2 2 2 2 2 3 2 1 2 1 3 1 3 2 1 -4 -1 -1 -1 -0 -0 -1 -1 -1 -1 -1 -1 -2 -3 -5 -7 -9
4 4 4 3 3 3 3 3 2 2 1 2 2 2 1 1 1 2 1 1 1 2 2 2 2 2 2 2 1 1 1 -0 2 -1 2 2 -3 -1 -1 -1 -1 -1 -1 -2 -3 -4 -5 -7 -8 -9 -10 -12 -13 -14
3 4 4 3 3 3 3 3 3 3 1 1 2 2 2 2 2 -0 3 2 2 1 2 2 1 2 2 2 1 1 2 3 -0 2 2 0 -2 -1 -2 -4 -4 -4 -4 -7 -9 -11 -11 -12 -13 -13 -13 -13 -12 -11
0 1 3 3 4 4 4 4 3 3 3 2 1 0 -1 1 1 0 1 1 -0 1 1 2 1 1 1 1 0 3 1 1 2 2 0 -0 -2 -2 -3 -5 -6 -6 -7 -10 -10 -11 -12 -12 -12 -11 -11 -11 -11 -11
-0 1 1 2 3 3 4 4 4 3 3 1 -1 -0 -1 -2 -1 -1 -1 -0 -0 0 1 1 1 1 0 1 -1 0 1 0 -1 -1 -1 -2 -1 -4 -2 -7 -7 -5 -7 -11 -11 -11 -10 -10 -9 -9 -8 -8 -7 -7
-3 -2 -2 -1 1 3 2 3 3 2 -0 -1 -2 -2 -1 -1 -1 -1 -1 -1 -0 0 1 1 -0 0 -0 -0 -1 -1 -0 -1 -1 -1 -2 -2 -2 -3 -2 -4 -3 -5 -8 -8 -8 -8 -8 -7 -8 -8 -7 -8 -8 -7
-6 -4 -4 -3 -2 -2 -2 -4 -5 -3 -2 -1 -2 -1 -1 -1 -1 -1 -1 -1 -0 -0 -0 -2 -1 -1 -3 -1 -1 -2 -2 -2 -1 -1 -2 -2 -1 -1 -2 -3 -3 -5 -6 -6 -7 -7 -6 -6 -6 -9 -11 -11 -10 -11
-9 -6 -5 -4 -4 -4 -4 -5 -3 -3 -2 -2 -2 -2 -2 -1 -1 -1 -1 -1 -1 -1 -1 -2 -2 -2 -2 -2 -2 -2 -2 -1 -1 -1 -2 -2 -2 -2 -3 -5 -5 -6 -6 -6 -6 -7 -8 -11 -13 -16 -17 -18 -19 -19
-15 -10 -8 -7 -6 -7 -4 -4 -4 -3 -3 -2 -2 -2 -2 -2 -2 -2 -2 -2 -2 -2 -2 -3 -5 -3 -3 -4 -3 -2 -2 -2 -2 -2 -2 -2 -5 -5 -6 -6 -6 -6 -7 -8 -10 -13 -14 -16 -16 -17 -17 -18 -19 -20
-16 -16 -11 -10 -10 -6 -4 -4 -4 -4 -3 -3 -3 -3 -3 -3 -2 -3 -3 -4 -4 -3 -3 -5 -4 -3 -3 -2 -2 -3 -3 -3 -3 -3 -5 -5 -5 -6 -6 -6 -8 -10 -12 -13 -14 -15 -16 -17 -17 -19 -21 -24 -26 -27
-18 -18 -14 -11 -7 -5 -4 -4 -5 -4 -4 -4 -4 -4 -4 -3 -3 -4 -4 -5 -4 -3 -4 -3 -3 -3 -3 -4 -4 -4 -4 -4 -4 -5 -5 -5 -6 -7 -9 -11 -11 -12 -13 -14 -15 -16 -17 -19 -22 -26 -27 -27 -27 -26
-19 -16 -13 -9 -5 -4 -4 -4 -4 -5 -4 -4 -4 -5 -5 -4 -4 -4 -4 -5 -5 -4 -4 -3 -4 -4 -4 -4 -5 -6 -6 -6 -6 -6 -5 -6 -8 -10 -10 -11 -12 -13 -15 -16 -16 -18 -22 -26 -27 -26 -26 -26 -25 -25
-18 -16 -8 -6 -6 -5 -4 -5 -5 -6 -5 -3 -5 -6 -5 -5 -5 -5 -5 -5 -5 -5 -5 -4 -4 -4 -3 -4 -5 -6 -7 -7 -8 -8 -9 -9 -10 -11 -11 -12 -14 -15 -16 -17 -22 -25 -26 -26 -25 -25 -25 -24 -24 -24
-14 -11 -7 -5 -5 -6 -5 -5 -4 -5 -4 -4 -5 -6 -6 -5 -5 -6 -6 -5 -6 -5 -5 -5 -5 -5 -5 -6 -6 -6 -7 -7 -8 -9 -10 -9 -9 -10 -13 -14 -15 -17 -21 -25 -26 -25 -24 -24 -24 -24 -24 -24 -23 -20
-9 -7 -7 -7 -6 -7 -9 -10 -8 -6 -9 -8 -7 -8 -6 -6 -8 -8 -9 -7 -8 -7 -7 -7 -6 -6 -7 -8 -8 -8 -9 -9 -8 -8 -9 -11 -13 -14 -15 -16 -22 -25 -25 -25 -24 -24 -23 -23 -23 -24 -23 -21 -20 -19
-8 -7 -7 -9 -7 -8 -9 -10 -9 -10 -11 -9 -8 -7 -6 -8 -7 -7 -9 -9 -9 -9 -9 -8 -8 -8 -8 -9 -9 -9 -9 -10 -10 -11 -13 -14 -15 -18 -23 -24 -25 -24 -24 -23 -23 -23 -23 -23 -24 -23 -22 -21 -20 -19
-8 -7 -6 -6 -6 -6 -7 -6 -6 -7 -9 -8 -8 -8 -7 -6 -8 -10 -10 -10 -10 -10 -9 -9 -9 -9 -9 -10 -10 -10 -11 -12 -13 -14 -16 -18 -22 -23 -23 -23 -24 -23 -22 -22 -22 -22 -23 -23 -22 -21 -21 -20 -20 -20
-6 -6 -8 -5 -5 -5 -7 -7 -9 -7 -7 -6 -6 -8 -7 -8 -10 -12 -12 -11 -11 -11 -10 -10 -10 -11 -11 -11 -11 -12 -13 -17 -20 -21 -22 -23 -23 -23 -23 -23 -22 -22 -22 -22 -23 -24 -23 -22 -21 -21 -20 -20 -20 -20
-6 -6 -6 -6 -6 -6 -6 -7 -6 -6 -6 -6 -7 -9 -12 -13 -13 -12 -12 -12 -12 -12 -12 -12 -12 -12 -12 -13 -13 -17 -22 -23 -22 -22 -23 -24 -24 -24 -24 -24 -24 -23 -24 -26 -25 -23 -22 -21 -21 -20 -20 -20 -20 -20
-6 -6 -6 -7 -9 -9 -7 -7 -7 -7 -7 -7 -9 -11 -13 -14 -13 -13 -13 -13 -13 -13 -13 -13 -14 -14 -16 -20 -22 -22 -22 -23 -24 -26 -27 -27 -28 -28 -27 -27 -26 -26 -25 -24 -23 -22 -21 -21 -21 -20 -20 -20 -20 -21
-7 -7 -8 -9 -8 -7 -7 -8 -7 -7 -7 -8 -9 -10 -13 -15 -15 -15 -14 -14 -14 -14 -15 -15 -18 -22 -22 -22 -23 -24 -25 -26 -30 -31 -31 -31 -30 -29 -28 -27 -24 -22 -21 -22 -21 -21 -21 -21 -21 -21 -21 -21 -21 -21
-9 -8 -8 -11 -8 -8 -8 -8 -9 -9 -9 -9 -11 -12 -13 -14 -15 -16 -16 -16 -15 -17 -19 -21 -21 -21 -22 -24 -26 -27 -29 -30 -31 -31 -30 -29 -27 -26 -24 -22 -21 -21 -21 -21 -21 -21 -21 -21 -21 -21 -21 -21 -21 -21
-9 -8 -9 -9 -9 -8 -9 -9 -12 -11 -10 -12 -13 -13 -14 -14 -16 -16 -17 -17 -16 -19 -21 -21 -22 -22 -23 -24 -25 -27 -28 -29 -28 -26 -24 -23 -23 -22 -21 -21 -21 -21 -21 -21 -22 -22 -21 -21 -21 -21 -21 -22 -23 -25